Back to catalog

STARLINK-11330

AliveCommunicationsVLEO
NORAD 62011·PAYLOAD·🇺🇸 United States

Launched Nov 18, 2024 from Vandenberg Space Force Base

Loading…

Next Passes (next 24 hours)

TLE

FreshSource: CelesTrak SupGP

Epoch: Sep 14, 2026, 13:50 UTC

1 62011C 24213D   26257.57687500 -.00011435  00000+0 -94214-4 0  2578
2 62011  53.1579 190.3406 0000981  91.6435 101.6848 15.69710739    18

Track STARLINK-11330 in real time with AllMySat

Download on the App Store